Location: ČR
(50.0000°N, 15.0000°E)
Time: 18:15:14
(UTC+00:00)

Envisat - Pass Details

Date: 25 September 2021
Orbit: 764 x 766 km, 98.2° (Epoch: 22 October)

Event Time Altitude Azimuth Distance (km) Brightness Sun altitude
Rises 03:55:15 0° 17° (NNE) 3,244 6.6 -9.7°
Reaches altitude 10° 03:57:38 10° 22° (NNE) 2,313 5.9 -9.4°
Maximum altitude 04:02:37 53° 100° (E) 937 3.9 -8.6°
Drops below altitude 10° 04:07:34 10° 177° (S) 2,295 5.4 -7.8°
Sets 04:09:55 0° 182° (S) 3,216 6.1 -7.4°
